Location: Alpha Ridge Park
(39.3209°N, 76.9128°W)
Time: 23:57:56
(UTC-04:00)

Transit 2A - Pass Details

Date: 01 June 2019
Orbit: 593 x 966 km, 66.7° (Epoch: 18 June)

Event Time Altitude Azimuth Distance (km) Brightness Sun altitude
Rises 15:15:07 0° 332° (NNW) 3,511 9.5 57.5°
Reaches altitude 10° 15:17:45 10° 333° (NNW) 2,517 8.8 57.0°
Maximum altitude 15:23:34 78° 60° (ENE) 825 7.0 56.0°
Drops below altitude 10° 15:28:44 10° 147° (SSE) 2,248 8.5 55.1°
Sets 15:30:59 0° 149° (SSE) 3,110 9.1 54.6°
